カタログに戻る

SPACEMOBILE-011

運用中VLEO
NORAD 100242·PAYLOAD·🇺🇸 United States

打ち上げ Aug 5, 2026 から Cape Canaveral Space Force Station

Loading…

次のパス (今後24時間)

TLE

最新Source: Space-Track

元期: Sep 14, 2026, 09:50 UTC

1 A0242U 26179C   26257.40985279  .00000088  00000-0  21726-4 0  9997
2 A0242  52.9964 145.9114 0007139  99.9930 260.1867 15.13339027  6076

AllMySatでSPACEMOBILE-011をリアルタイム追跡

Download on the App Store